Location: Chuathbaluk
(61.5726°N, 159.2454°W)
Time: 16:26:51
(UTC+00:00)

ZACube-1 - Pass Details

Date: 22 January 2021
Orbit: 583 x 666 km, 97.6° (Epoch: 04 March)

Event Time Altitude Azimuth Distance (km) Brightness Sun altitude
Rises 17:03:50 0° 15° (NNE) 3,026 ? -15.3°
Reaches altitude 10° 17:06:09 10° 10° (N) 2,109 ? -15.0°
Maximum altitude 17:10:32 45° 299° (WNW) 913 ? -14.5°
Drops below altitude 10° 17:14:52 10° 227° (SW) 2,081 ? -14.0°
Sets 17:17:08 0° 221° (SW) 2,980 ? -13.8°
